LAN085 SCEL-SCCI

Flight info

Callsign LAN085
Flight time 3h 15m
Altitude 33000
Route LINE6C LINER UQ805 NISDO/N0455F350 UQ805 TIGNO UQ803 NEDAX NEDA3E
Aircraft A321/M-SDE3FGHIRWY/LB1

Departure

Time 2026-04-26 15:40
Airport Comodoro Arturo Merino Benítez International Airport (SCEL)

Arrival

Time 2026-04-26 18:55
Airport President Carlos Ibáñez International Airport (SCCI)
Time Latitude Longitude Altitude Speed Heading
2026-04-26 15:13 -33.39582 -70.79067 1562 ft 0 kts 196°
2026-04-26 15:27 -33.39580 -70.79066 1562 ft 0 kts 196°
2026-04-26 15:27 -33.39554 -70.79057 1562 ft 2 kts 196°
2026-04-26 15:28 -33.39529 -70.79049 1562 ft 1 kts 196°
2026-04-26 15:28 -33.39507 -70.79035 1562 ft 2 kts 233°
2026-04-26 15:28 -33.39499 -70.79018 1562 ft 2 kts 263°
2026-04-26 15:28 -33.39498 -70.79007 1562 ft 20 kts 268°
2026-04-26 15:31 -33.39498 -70.79014 1562 ft 3 kts 268°
2026-04-26 15:31 -33.39466 -70.79128 1562 ft 12 kts 336°
2026-04-26 15:31 -33.39373 -70.79139 1562 ft 14 kts 351°
2026-04-26 15:32 -33.39324 -70.79291 1561 ft 13 kts 266°
2026-04-26 15:32 -33.39329 -70.79445 1561 ft 15 kts 267°
2026-04-26 15:32 -33.39335 -70.79566 1561 ft 15 kts 266°
2026-04-26 15:33 -33.39341 -70.79689 1560 ft 15 kts 266°
2026-04-26 15:33 -33.39347 -70.79811 1560 ft 15 kts 267°
2026-04-26 15:33 -33.39345 -70.79939 1560 ft 16 kts 279°
2026-04-26 15:33 -33.39283 -70.80040 1560 ft 16 kts 332°
2026-04-26 15:34 -33.39169 -70.80063 1560 ft 18 kts 358°
2026-04-26 15:34 -33.39038 -70.80070 1560 ft 20 kts 357°
2026-04-26 15:34 -33.38891 -70.80078 1560 ft 23 kts 358°
2026-04-26 15:34 -33.38728 -70.80087 1560 ft 24 kts 357°
2026-04-26 15:35 -33.38565 -70.80096 1560 ft 24 kts 358°
2026-04-26 15:35 -33.38400 -70.80105 1560 ft 24 kts 357°
2026-04-26 15:35 -33.38230 -70.80114 1560 ft 25 kts 357°
2026-04-26 15:35 -33.38057 -70.80124 1560 ft 25 kts 357°
2026-04-26 15:36 -33.37881 -70.80132 1559 ft 25 kts 358°
2026-04-26 15:36 -33.37716 -70.80141 1560 ft 22 kts 357°
2026-04-26 15:36 -33.37575 -70.80149 1560 ft 18 kts 357°
2026-04-26 15:36 -33.37460 -70.80155 1560 ft 15 kts 358°
2026-04-26 15:37 -33.37363 -70.80160 1561 ft 13 kts 357°
2026-04-26 15:37 -33.37285 -70.80165 1561 ft 10 kts 357°
2026-04-26 15:37 -33.37216 -70.80168 1561 ft 9 kts 358°
2026-04-26 15:37 -33.37155 -70.80177 1561 ft 8 kts 342°
2026-04-26 15:38 -33.37119 -70.80212 1560 ft 5 kts 307°
2026-04-26 15:38 -33.37112 -70.80232 1561 ft 0 kts 291°
2026-04-26 15:38 -33.37110 -70.80240 1561 ft 3 kts 291°
2026-04-26 15:39 -33.37105 -70.80288 1561 ft 8 kts 268°
2026-04-26 15:39 -33.37143 -70.80360 1561 ft 12 kts 213°
2026-04-26 15:39 -33.37219 -70.80370 1560 ft 13 kts 178°
2026-04-26 15:39 -33.37376 -70.80362 1561 ft 59 kts 177°
2026-04-26 15:40 -33.38365 -70.80313 1561 ft 154 kts 178°
2026-04-26 15:40 -33.39565 -70.80265 2090 ft 180 kts 179°
2026-04-26 15:40 -33.40856 -70.80257 2996 ft 189 kts 180°
2026-04-26 15:40 -33.42154 -70.80296 3822 ft 183 kts 182°
2026-04-26 15:41 -33.43427 -70.80322 4548 ft 183 kts 179°
2026-04-26 15:41 -33.44747 -70.80272 5244 ft 198 kts 178°
2026-04-26 15:41 -33.46173 -70.80216 5998 ft 213 kts 178°
2026-04-26 15:41 -33.47731 -70.80147 6709 ft 233 kts 178°
2026-04-26 15:42 -33.49448 -70.80065 7326 ft 261 kts 178°
2026-04-26 15:42 -33.51352 -70.79815 7904 ft 284 kts 171°
2026-04-26 15:42 -33.53270 -70.79460 8461 ft 281 kts 170°
2026-04-26 15:42 -33.55205 -70.79160 9022 ft 281 kts 176°
2026-04-26 15:43 -33.57165 -70.79068 9632 ft 286 kts 177°
2026-04-26 15:43 -33.59137 -70.78905 10262 ft 282 kts 174°
2026-04-26 15:43 -33.63216 -70.78403 10995 ft 306 kts 175°
2026-04-26 15:44 -33.65338 -70.78188 11295 ft 311 kts 175°
2026-04-26 15:44 -33.69729 -70.77711 12605 ft 322 kts 176°
2026-04-26 15:44 -33.71981 -70.77466 13338 ft 325 kts 176°
2026-04-26 15:45 -33.76527 -70.76972 14729 ft 330 kts 177°
2026-04-26 15:45 -33.78823 -70.76721 15412 ft 332 kts 178°
2026-04-26 15:46 -33.83472 -70.76215 16805 ft 338 kts 179°
2026-04-26 15:46 -33.85825 -70.75958 17529 ft 340 kts 179°
2026-04-26 15:46 -33.88157 -70.75703 18261 ft 343 kts 179°
2026-04-26 15:46 -33.89766 -70.75528 18720 ft 344 kts 179°
2026-04-26 15:47 -33.92939 -70.75297 19588 ft 343 kts 188°
2026-04-26 15:47 -33.97665 -70.76098 20998 ft 345 kts 192°
2026-04-26 15:47 -34.00049 -70.76483 21672 ft 346 kts 192°
2026-04-26 15:48 -34.02427 -70.76875 22413 ft 345 kts 192°
2026-04-26 15:48 -34.04819 -70.77285 22989 ft 349 kts 192°
2026-04-26 15:48 -34.07246 -70.77699 23495 ft 355 kts 192°
2026-04-26 15:48 -34.09679 -70.78106 23965 ft 360 kts 192°
2026-04-26 15:49 -34.12176 -70.78527 24398 ft 365 kts 192°
2026-04-26 15:49 -34.14706 -70.78955 24828 ft 370 kts 192°
2026-04-26 15:49 -34.17270 -70.79388 25260 ft 374 kts 192°
2026-04-26 15:49 -34.19864 -70.79826 25704 ft 378 kts 192°
2026-04-26 15:50 -34.22484 -70.80269 26176 ft 381 kts 192°
2026-04-26 15:50 -34.25114 -70.80714 26685 ft 383 kts 192°
2026-04-26 15:50 -34.27755 -70.81162 27185 ft 384 kts 192°
2026-04-26 15:50 -34.30406 -70.81611 27706 ft 385 kts 192°
2026-04-26 15:51 -34.33062 -70.82060 28234 ft 385 kts 192°
2026-04-26 15:51 -34.35715 -70.82510 28772 ft 385 kts 192°
2026-04-26 15:51 -34.38372 -70.82962 29323 ft 384 kts 192°
2026-04-26 15:51 -34.41016 -70.83411 29880 ft 383 kts 192°
2026-04-26 15:52 -34.43650 -70.83859 30376 ft 383 kts 192°
2026-04-26 15:52 -34.46295 -70.84309 30747 ft 383 kts 192°
2026-04-26 15:52 -34.48903 -70.84754 31120 ft 384 kts 192°
2026-04-26 15:52 -34.50693 -70.85059 31353 ft 385 kts 192°
2026-04-26 15:53 -34.54224 -70.85661 31701 ft 389 kts 192°
2026-04-26 15:53 -34.56917 -70.86121 31960 ft 393 kts 192°
2026-04-26 15:53 -34.59641 -70.86586 32218 ft 396 kts 192°
2026-04-26 15:53 -34.62383 -70.87054 32454 ft 400 kts 192°
2026-04-26 15:54 -34.65160 -70.87529 32585 ft 407 kts 192°
2026-04-26 15:54 -34.67989 -70.88014 32701 ft 413 kts 192°
2026-04-26 15:54 -34.70858 -70.88504 32817 ft 419 kts 192°
2026-04-26 15:54 -34.73763 -70.89001 32954 ft 423 kts 192°
2026-04-26 15:55 -34.76650 -70.89495 33057 ft 425 kts 192°
2026-04-26 15:55 -34.79581 -70.89996 33171 ft 426 kts 192°
2026-04-26 15:55 -34.82527 -70.90501 33145 ft 429 kts 192°
2026-04-26 15:56 -34.88406 -70.91506 32986 ft 423 kts 192°
2026-04-26 15:56 -34.94232 -70.92510 32834 ft 421 kts 192°
2026-04-26 15:57 -35.00003 -70.93501 32689 ft 420 kts 192°
2026-04-26 15:57 -35.05781 -70.94497 32550 ft 418 kts 192°
2026-04-26 15:58 -35.11525 -70.95489 32410 ft 416 kts 192°
2026-04-26 15:58 -35.17252 -70.96479 32271 ft 414 kts 192°
2026-04-26 15:59 -35.22934 -70.97464 32130 ft 411 kts 192°
2026-04-26 15:59 -35.28543 -70.98439 31996 ft 407 kts 192°
2026-04-26 16:00 -35.34171 -70.99415 31858 ft 408 kts 192°
2026-04-26 16:00 -35.39784 -71.00393 31722 ft 407 kts 192°
2026-04-26 16:01 -35.45376 -71.01367 31591 ft 405 kts 192°
2026-04-26 16:01 -35.50951 -71.02340 31459 ft 404 kts 193°
2026-04-26 16:02 -35.56515 -71.03313 31327 ft 403 kts 193°
2026-04-26 16:02 -35.62066 -71.04283 31197 ft 403 kts 193°
2026-04-26 16:03 -35.67568 -71.05249 31067 ft 401 kts 193°
2026-04-26 16:03 -35.73085 -71.06215 30939 ft 400 kts 193°
2026-04-26 16:04 -35.78594 -71.07185 30807 ft 399 kts 193°
2026-04-26 16:04 -35.84081 -71.08150 30683 ft 397 kts 193°
2026-04-26 16:05 -35.89548 -71.09115 30569 ft 398 kts 193°
2026-04-26 16:05 -35.95027 -71.10080 30451 ft 397 kts 193°
2026-04-26 16:06 -36.00483 -71.11045 30336 ft 395 kts 193°
2026-04-26 16:06 -36.05898 -71.12003 30215 ft 395 kts 192°
2026-04-26 16:07 -36.11281 -71.12956 30079 ft 392 kts 193°
2026-04-26 16:07 -36.16649 -71.13909 29928 ft 388 kts 193°
2026-04-26 16:08 -36.22015 -71.14865 29804 ft 390 kts 193°
2026-04-26 16:08 -36.27386 -71.15818 29662 ft 389 kts 192°
2026-04-26 16:09 -36.32742 -71.16773 29541 ft 389 kts 192°
2026-04-26 16:09 -36.38068 -71.17723 29406 ft 388 kts 192°
2026-04-26 16:10 -36.43422 -71.18681 29275 ft 386 kts 192°
2026-04-26 16:10 -36.48312 -71.19555 29161 ft 386 kts 192°
2026-04-26 16:11 -36.53110 -71.20415 29063 ft 385 kts 192°
2026-04-26 16:11 -36.58412 -71.21367 28913 ft 384 kts 192°
2026-04-26 16:12 -36.63695 -71.22314 28792 ft 383 kts 192°
2026-04-26 16:12 -36.71607 -71.23738 28613 ft 382 kts 192°
2026-04-26 16:13 -36.76861 -71.24687 28489 ft 381 kts 192°
2026-04-26 16:13 -36.82093 -71.25632 28373 ft 379 kts 192°
2026-04-26 16:14 -36.87314 -71.26573 28259 ft 379 kts 192°
2026-04-26 16:14 -36.92536 -71.27522 28143 ft 378 kts 192°
2026-04-26 16:15 -36.95139 -71.27992 28088 ft 378 kts 192°
2026-04-26 16:15 -37.00309 -71.28931 27977 ft 378 kts 192°
2026-04-26 16:16 -37.05501 -71.29872 27854 ft 376 kts 192°
2026-04-26 16:16 -37.08090 -71.30343 27801 ft 376 kts 192°
2026-04-26 16:16 -37.10685 -71.30817 27749 ft 376 kts 192°
2026-04-26 16:16 -37.13246 -71.31284 27693 ft 377 kts 192°
2026-04-26 16:17 -37.15840 -71.31756 27643 ft 376 kts 192°
2026-04-26 16:17 -37.18422 -71.32228 27575 ft 375 kts 192°
2026-04-26 16:17 -37.21009 -71.32699 27521 ft 376 kts 192°
2026-04-26 16:17 -37.23590 -71.33169 27476 ft 374 kts 192°
2026-04-26 16:18 -37.26168 -71.33642 27420 ft 375 kts 192°
2026-04-26 16:18 -37.31337 -71.34585 27325 ft 374 kts 192°
2026-04-26 16:19 -37.36488 -71.35531 27204 ft 374 kts 192°
2026-04-26 16:19 -37.39056 -71.36001 27156 ft 372 kts 192°
2026-04-26 16:19 -37.43321 -71.36785 27077 ft 373 kts 192°
2026-04-26 16:20 -37.46713 -71.37407 27004 ft 371 kts 192°
2026-04-26 16:20 -37.50988 -71.38195 26916 ft 370 kts 192°
2026-04-26 16:20 -37.53512 -71.38659 26873 ft 370 kts 192°
2026-04-26 16:21 -37.56064 -71.39128 26823 ft 370 kts 192°
2026-04-26 16:21 -37.58613 -71.39598 26772 ft 369 kts 192°
2026-04-26 16:21 -37.61166 -71.40069 26731 ft 370 kts 192°
2026-04-26 16:21 -37.63708 -71.40539 26664 ft 368 kts 192°
2026-04-26 16:22 -37.66244 -71.41008 26627 ft 369 kts 192°
2026-04-26 16:22 -37.68788 -71.41479 26567 ft 369 kts 192°
2026-04-26 16:22 -37.71324 -71.41947 26521 ft 368 kts 192°
2026-04-26 16:22 -37.73826 -71.42410 26472 ft 369 kts 192°
2026-04-26 16:23 -37.76371 -71.42882 26426 ft 368 kts 192°
2026-04-26 16:23 -37.78901 -71.43350 26381 ft 367 kts 192°
2026-04-26 16:23 -37.81431 -71.43820 26331 ft 367 kts 192°
2026-04-26 16:23 -37.83960 -71.44290 26284 ft 367 kts 192°
2026-04-26 16:24 -37.86486 -71.44758 26231 ft 367 kts 192°
2026-04-26 16:24 -37.89013 -71.45228 26192 ft 367 kts 192°
2026-04-26 16:24 -37.91533 -71.45698 26138 ft 366 kts 192°
2026-04-26 16:24 -37.94066 -71.46170 26090 ft 366 kts 192°
2026-04-26 16:25 -37.96585 -71.46638 26048 ft 366 kts 192°
2026-04-26 16:25 -37.99108 -71.47108 25998 ft 366 kts 192°
2026-04-26 16:25 -38.01630 -71.47579 25949 ft 365 kts 192°
2026-04-26 16:25 -38.04143 -71.48047 25901 ft 365 kts 192°
2026-04-26 16:26 -38.06645 -71.48515 25839 ft 362 kts 193°
2026-04-26 16:26 -38.09143 -71.48984 25806 ft 364 kts 192°
2026-04-26 16:26 -38.11620 -71.49447 25765 ft 364 kts 192°
2026-04-26 16:26 -38.14121 -71.49913 25723 ft 363 kts 192°
2026-04-26 16:27 -38.16620 -71.50381 25672 ft 365 kts 192°
2026-04-26 16:27 -38.19132 -71.50854 25625 ft 363 kts 192°
2026-04-26 16:27 -38.21625 -71.51320 25581 ft 363 kts 192°
2026-04-26 16:27 -38.24135 -71.51792 25541 ft 363 kts 192°
2026-04-26 16:28 -38.26633 -71.52261 25490 ft 363 kts 192°
2026-04-26 16:28 -38.29128 -71.52728 25446 ft 363 kts 192°
2026-04-26 16:28 -38.31623 -71.53200 25403 ft 362 kts 192°
2026-04-26 16:28 -38.34115 -71.53669 25356 ft 361 kts 192°
2026-04-26 16:29 -38.36604 -71.54136 25308 ft 361 kts 192°
2026-04-26 16:29 -38.39092 -71.54606 25256 ft 361 kts 192°
2026-04-26 16:29 -38.41552 -71.55072 25217 ft 361 kts 192°
2026-04-26 16:29 -38.44039 -71.55539 25171 ft 360 kts 192°
2026-04-26 16:30 -38.46525 -71.56008 25129 ft 361 kts 192°
2026-04-26 16:30 -38.49006 -71.56479 25086 ft 360 kts 193°
2026-04-26 16:30 -38.51479 -71.56945 25041 ft 360 kts 192°
2026-04-26 16:30 -38.53961 -71.57415 25002 ft 360 kts 192°
2026-04-26 16:31 -38.56436 -71.57885 24952 ft 359 kts 193°
2026-04-26 16:31 -38.58915 -71.58356 24905 ft 360 kts 192°
2026-04-26 16:31 -38.61398 -71.58826 24871 ft 360 kts 192°
2026-04-26 16:31 -38.63880 -71.59296 24837 ft 360 kts 192°
2026-04-26 16:32 -38.66353 -71.59767 24784 ft 359 kts 192°
2026-04-26 16:32 -38.67996 -71.60079 24757 ft 359 kts 192°
2026-04-26 16:32 -38.71272 -71.60702 24703 ft 359 kts 192°
2026-04-26 16:32 -38.73745 -71.61173 24661 ft 358 kts 192°
2026-04-26 16:33 -38.76213 -71.61645 24620 ft 359 kts 192°
2026-04-26 16:33 -38.78680 -71.62115 24574 ft 358 kts 192°
2026-04-26 16:33 -38.81146 -71.62584 24534 ft 358 kts 192°
2026-04-26 16:33 -38.83612 -71.63055 24498 ft 358 kts 192°
2026-04-26 16:34 -38.86081 -71.63528 24450 ft 358 kts 192°
2026-04-26 16:34 -38.88538 -71.63998 24396 ft 356 kts 192°
2026-04-26 16:34 -38.90992 -71.64465 24370 ft 358 kts 192°
2026-04-26 16:34 -38.93453 -71.64939 24327 ft 357 kts 192°
2026-04-26 16:35 -38.95905 -71.65406 24289 ft 357 kts 192°
2026-04-26 16:35 -38.98364 -71.65878 24244 ft 356 kts 192°
2026-04-26 16:35 -39.00815 -71.66349 24204 ft 356 kts 192°
2026-04-26 16:35 -39.03237 -71.66815 24169 ft 357 kts 192°
2026-04-26 16:36 -39.05689 -71.67285 24126 ft 356 kts 192°
2026-04-26 16:36 -39.08146 -71.67757 24082 ft 356 kts 192°
2026-04-26 16:36 -39.10599 -71.68229 24038 ft 356 kts 192°
2026-04-26 16:36 -39.13045 -71.68701 23995 ft 356 kts 192°
2026-04-26 16:37 -39.15497 -71.69173 23961 ft 356 kts 192°
2026-04-26 16:37 -39.17948 -71.69646 23920 ft 356 kts 192°
2026-04-26 16:37 -39.20393 -71.70117 23872 ft 355 kts 192°
2026-04-26 16:37 -39.22015 -71.70430 23847 ft 355 kts 192°
2026-04-26 16:38 -39.25285 -71.71062 23783 ft 355 kts 192°
2026-04-26 16:38 -39.27731 -71.71537 23730 ft 355 kts 192°
2026-04-26 16:38 -39.30174 -71.72007 23681 ft 355 kts 192°
2026-04-26 16:38 -39.32616 -71.72480 23626 ft 355 kts 192°
2026-04-26 16:39 -39.35026 -71.72947 23587 ft 354 kts 192°
2026-04-26 16:39 -39.37458 -71.73420 23534 ft 353 kts 192°
2026-04-26 16:39 -39.39888 -71.73892 23487 ft 353 kts 192°
2026-04-26 16:39 -39.42320 -71.74362 23445 ft 354 kts 192°
2026-04-26 16:40 -39.44756 -71.74836 23395 ft 353 kts 192°
2026-04-26 16:40 -39.47179 -71.75310 23205 ft 351 kts 191°
2026-04-26 16:40 -39.49572 -71.75772 23161 ft 347 kts 191°
2026-04-26 16:40 -39.51971 -71.76238 23114 ft 348 kts 191°
2026-04-26 16:41 -39.54365 -71.76706 23070 ft 347 kts 191°
2026-04-26 16:41 -39.56759 -71.77175 23019 ft 348 kts 191°
2026-04-26 16:41 -39.59148 -71.77640 22977 ft 347 kts 191°
2026-04-26 16:41 -39.61537 -71.78105 22928 ft 347 kts 191°
2026-04-26 16:42 -39.63925 -71.78573 22877 ft 346 kts 191°
2026-04-26 16:42 -39.66306 -71.79037 22827 ft 347 kts 191°
2026-04-26 16:42 -39.68667 -71.79499 22789 ft 347 kts 191°
2026-04-26 16:42 -39.71057 -71.79970 22743 ft 347 kts 191°
2026-04-26 16:43 -39.73441 -71.80437 22703 ft 346 kts 191°
2026-04-26 16:43 -39.75819 -71.80902 22651 ft 345 kts 191°
2026-04-26 16:43 -39.78198 -71.81368 22590 ft 346 kts 191°
2026-04-26 16:43 -39.80591 -71.81838 22560 ft 347 kts 191°
2026-04-26 16:44 -39.82973 -71.82306 22516 ft 345 kts 191°
2026-04-26 16:44 -39.85351 -71.82777 22468 ft 345 kts 191°
2026-04-26 16:44 -39.87724 -71.83241 22425 ft 345 kts 190°
2026-04-26 16:44 -39.90101 -71.83708 22375 ft 345 kts 190°
2026-04-26 16:45 -39.92481 -71.84178 22333 ft 346 kts 190°
2026-04-26 16:45 -39.94852 -71.84645 22289 ft 344 kts 190°
2026-04-26 16:45 -39.97221 -71.85113 22254 ft 345 kts 190°
2026-04-26 16:45 -39.99558 -71.85575 22206 ft 343 kts 190°
2026-04-26 16:46 -40.01923 -71.86042 22163 ft 344 kts 190°
2026-04-26 16:46 -40.04291 -71.86510 22118 ft 343 kts 190°
2026-04-26 16:46 -40.06650 -71.86976 22076 ft 342 kts 190°
2026-04-26 16:46 -40.09007 -71.87444 22030 ft 342 kts 190°
2026-04-26 16:47 -40.11359 -71.87910 21986 ft 342 kts 190°
2026-04-26 16:47 -40.13709 -71.88375 21945 ft 342 kts 190°
2026-04-26 16:47 -40.16065 -71.88843 21899 ft 342 kts 190°
2026-04-26 16:47 -40.18408 -71.89308 21858 ft 341 kts 190°
2026-04-26 16:48 -40.20758 -71.89776 21816 ft 341 kts 190°
2026-04-26 16:48 -40.23070 -71.90235 21776 ft 341 kts 190°
2026-04-26 16:48 -40.25411 -71.90701 21741 ft 341 kts 190°
2026-04-26 16:48 -40.27758 -71.91169 21682 ft 338 kts 190°
2026-04-26 16:49 -40.30099 -71.91635 21660 ft 342 kts 190°
2026-04-26 16:49 -40.32446 -71.92102 21614 ft 339 kts 190°
2026-04-26 16:49 -40.34780 -71.92568 21569 ft 340 kts 190°
2026-04-26 16:49 -40.37131 -71.93039 21537 ft 341 kts 190°
2026-04-26 16:50 -40.39475 -71.93507 21495 ft 343 kts 190°
2026-04-26 16:50 -40.41828 -71.93977 21454 ft 341 kts 190°
2026-04-26 16:50 -40.44170 -71.94444 21406 ft 339 kts 190°
2026-04-26 16:50 -40.46500 -71.94912 21372 ft 339 kts 190°
2026-04-26 16:51 -40.48832 -71.95380 21324 ft 339 kts 190°
2026-04-26 16:51 -40.51134 -71.95842 21293 ft 339 kts 190°
2026-04-26 16:51 -40.53461 -71.96308 21253 ft 338 kts 190°
2026-04-26 16:51 -40.55792 -71.96776 21212 ft 339 kts 190°
2026-04-26 16:52 -40.58124 -71.97244 21165 ft 338 kts 190°
2026-04-26 16:52 -40.59662 -71.97554 21143 ft 338 kts 190°
2026-04-26 16:52 -40.62780 -71.98181 21088 ft 338 kts 190°
2026-04-26 16:52 -40.65104 -71.98649 21044 ft 337 kts 190°
2026-04-26 16:53 -40.67422 -71.99116 21009 ft 337 kts 190°
2026-04-26 16:53 -40.69741 -71.99585 20970 ft 336 kts 190°
2026-04-26 16:53 -40.72022 -72.00044 20936 ft 337 kts 190°
2026-04-26 16:53 -40.74338 -72.00512 20895 ft 336 kts 190°
2026-04-26 16:54 -40.76653 -72.00980 20855 ft 336 kts 190°
2026-04-26 16:54 -40.78967 -72.01448 20820 ft 336 kts 190°
2026-04-26 16:54 -40.81268 -72.01913 20779 ft 336 kts 190°
2026-04-26 16:54 -40.83595 -72.02385 20740 ft 337 kts 190°
2026-04-26 16:55 -40.85912 -72.02854 20702 ft 336 kts 190°
2026-04-26 16:55 -40.88220 -72.03322 20659 ft 334 kts 190°
2026-04-26 16:55 -40.90519 -72.03789 20636 ft 335 kts 190°
2026-04-26 16:55 -40.92821 -72.04257 20705 ft 333 kts 190°
2026-04-26 16:56 -40.97432 -72.05194 21298 ft 337 kts 190°
2026-04-26 16:56 -40.99744 -72.05665 21753 ft 336 kts 190°
2026-04-26 16:56 -41.02078 -72.06140 22287 ft 343 kts 190°
2026-04-26 16:57 -41.04453 -72.06626 22800 ft 347 kts 190°
2026-04-26 16:57 -41.06860 -72.07116 23362 ft 353 kts 190°
2026-04-26 16:57 -41.11776 -72.08119 24362 ft 365 kts 190°
2026-04-26 16:58 -41.14302 -72.08635 24832 ft 369 kts 190°
2026-04-26 16:58 -41.16023 -72.08987 25139 ft 372 kts 190°
2026-04-26 16:58 -41.22052 -72.10223 26246 ft 381 kts 190°
2026-04-26 16:59 -41.24689 -72.10762 26724 ft 384 kts 190°
2026-04-26 16:59 -41.30018 -72.11766 27714 ft 389 kts 188°
2026-04-26 17:00 -41.35410 -72.12602 28737 ft 390 kts 188°
2026-04-26 17:00 -41.40756 -72.13437 29795 ft 390 kts 188°
2026-04-26 17:00 -41.43450 -72.13851 30323 ft 389 kts 188°
2026-04-26 17:01 -41.46127 -72.14268 30812 ft 387 kts 188°
2026-04-26 17:01 -41.48799 -72.14688 31284 ft 386 kts 188°
2026-04-26 17:01 -41.51464 -72.15103 31777 ft 385 kts 188°
2026-04-26 17:01 -41.54118 -72.15516 32271 ft 383 kts 188°
2026-04-26 17:02 -41.56757 -72.15927 32736 ft 382 kts 188°
2026-04-26 17:02 -41.59403 -72.16341 33150 ft 382 kts 188°
2026-04-26 17:02 -41.62040 -72.16754 33563 ft 381 kts 188°
2026-04-26 17:02 -41.64678 -72.17167 33951 ft 382 kts 188°
2026-04-26 17:03 -41.67324 -72.17582 34240 ft 384 kts 188°
2026-04-26 17:03 -41.69973 -72.17996 34490 ft 382 kts 188°
2026-04-26 17:03 -41.72623 -72.18412 34636 ft 384 kts 188°
2026-04-26 17:03 -41.75281 -72.18830 34749 ft 386 kts 188°
2026-04-26 17:04 -41.80616 -72.19668 34844 ft 387 kts 188°
2026-04-26 17:04 -41.85945 -72.20508 34769 ft 386 kts 188°
2026-04-26 17:05 -41.88610 -72.20929 34983 ft 385 kts 188°
2026-04-26 17:05 -41.91281 -72.21350 35119 ft 387 kts 188°
2026-04-26 17:05 -41.93963 -72.21774 35237 ft 389 kts 188°
2026-04-26 17:05 -41.96659 -72.22199 35317 ft 393 kts 188°
2026-04-26 17:06 -42.02040 -72.23050 35190 ft 383 kts 188°
2026-04-26 17:06 -42.07330 -72.23890 35093 ft 380 kts 189°
2026-04-26 17:07 -42.12575 -72.24722 35007 ft 379 kts 189°
2026-04-26 17:07 -42.17771 -72.25550 34918 ft 378 kts 189°
2026-04-26 17:08 -42.23000 -72.26382 34830 ft 379 kts 189°
2026-04-26 17:08 -42.28222 -72.27218 34735 ft 377 kts 189°
2026-04-26 17:09 -42.31706 -72.27773 34676 ft 376 kts 189°
2026-04-26 17:09 -42.38629 -72.28883 34561 ft 376 kts 189°
2026-04-26 17:10 -42.43833 -72.29716 34473 ft 375 kts 189°
2026-04-26 17:10 -42.48977 -72.30542 34383 ft 374 kts 189°
2026-04-26 17:11 -42.54164 -72.31380 34292 ft 374 kts 189°
2026-04-26 17:11 -42.58455 -72.32068 34205 ft 373 kts 189°
2026-04-26 17:12 -42.66208 -72.33321 34061 ft 374 kts 189°
2026-04-26 17:13 -42.73955 -72.34576 33917 ft 373 kts 189°
2026-04-26 17:14 -42.81684 -72.35831 33773 ft 374 kts 189°
2026-04-26 17:14 -42.89433 -72.37092 33628 ft 373 kts 189°
2026-04-26 17:15 -42.97135 -72.38349 33492 ft 373 kts 189°
2026-04-26 17:16 -43.02299 -72.39192 33388 ft 374 kts 189°
2026-04-26 17:16 -43.07470 -72.40041 33196 ft 378 kts 190°
2026-04-26 17:16 -43.10090 -72.40470 33445 ft 378 kts 189°
2026-04-26 17:17 -43.12699 -72.40897 33771 ft 377 kts 190°
2026-04-26 17:17 -43.15303 -72.41325 33978 ft 378 kts 190°
2026-04-26 17:17 -43.17919 -72.41755 34204 ft 379 kts 190°
2026-04-26 17:17 -43.20538 -72.42187 34418 ft 379 kts 190°
2026-04-26 17:18 -43.23165 -72.42620 34578 ft 380 kts 190°
2026-04-26 17:18 -43.25798 -72.43054 34725 ft 381 kts 190°
2026-04-26 17:18 -43.28435 -72.43488 34899 ft 382 kts 190°
2026-04-26 17:18 -43.31083 -72.43925 35035 ft 383 kts 189°
2026-04-26 17:19 -43.36357 -72.44798 35311 ft 385 kts 189°
2026-04-26 17:19 -43.41720 -72.45686 35258 ft 387 kts 189°
2026-04-26 17:20 -43.46140 -72.46417 35170 ft 383 kts 190°
2026-04-26 17:20 -43.52309 -72.47445 35055 ft 382 kts 190°
2026-04-26 17:21 -43.57582 -72.48322 34975 ft 382 kts 190°
2026-04-26 17:21 -43.62824 -72.49196 34874 ft 380 kts 190°
2026-04-26 17:22 -43.68079 -72.50077 34792 ft 380 kts 190°
2026-04-26 17:22 -43.73334 -72.50956 34705 ft 380 kts 190°
2026-04-26 17:23 -43.78605 -72.51843 34541 ft 387 kts 190°
2026-04-26 17:23 -43.81265 -72.52289 34895 ft 382 kts 190°
2026-04-26 17:23 -43.83912 -72.52731 35044 ft 384 kts 190°
2026-04-26 17:24 -43.86571 -72.53180 35184 ft 386 kts 190°
2026-04-26 17:24 -43.89235 -72.53632 35370 ft 386 kts 190°
2026-04-26 17:24 -43.94616 -72.54535 35244 ft 387 kts 190°
2026-04-26 17:25 -43.99935 -72.55436 35147 ft 384 kts 190°
2026-04-26 17:25 -44.05206 -72.56328 34936 ft 385 kts 190°
2026-04-26 17:26 -44.10557 -72.57236 35169 ft 386 kts 190°
2026-04-26 17:26 -44.13223 -72.57688 35326 ft 387 kts 190°
2026-04-26 17:26 -44.15918 -72.58149 35320 ft 392 kts 190°
2026-04-26 17:27 -44.21292 -72.59058 35207 ft 385 kts 190°
2026-04-26 17:27 -44.26606 -72.59967 35111 ft 384 kts 191°
2026-04-26 17:28 -44.31909 -72.60869 35021 ft 383 kts 191°
2026-04-26 17:28 -44.37179 -72.61772 34923 ft 384 kts 191°
2026-04-26 17:29 -44.41595 -72.62526 34847 ft 383 kts 191°
2026-04-26 17:29 -44.47776 -72.63587 34732 ft 382 kts 191°
2026-04-26 17:30 -44.53046 -72.64492 34643 ft 381 kts 191°
2026-04-26 17:30 -44.58305 -72.65397 34556 ft 381 kts 191°
2026-04-26 17:31 -44.63542 -72.66301 34470 ft 381 kts 191°
2026-04-26 17:31 -44.68824 -72.67215 34411 ft 385 kts 191°
2026-04-26 17:32 -44.71478 -72.67674 34668 ft 384 kts 191°
2026-04-26 17:32 -44.74134 -72.68131 34815 ft 385 kts 191°
2026-04-26 17:32 -44.76803 -72.68595 34976 ft 387 kts 191°
2026-04-26 17:32 -44.79474 -72.69061 35137 ft 387 kts 191°
2026-04-26 17:33 -44.82154 -72.69523 35330 ft 388 kts 191°
2026-04-26 17:33 -44.84852 -72.69993 35279 ft 393 kts 191°
2026-04-26 17:34 -44.92883 -72.71391 35129 ft 387 kts 191°
2026-04-26 17:34 -44.98175 -72.72314 35030 ft 385 kts 191°
2026-04-26 17:35 -45.03492 -72.73245 34937 ft 385 kts 191°
2026-04-26 17:35 -45.08808 -72.74175 34845 ft 384 kts 191°
2026-04-26 17:36 -45.14118 -72.75109 34756 ft 384 kts 192°
2026-04-26 17:36 -45.16784 -72.75578 34639 ft 388 kts 192°
2026-04-26 17:36 -45.19467 -72.76050 34856 ft 388 kts 192°
2026-04-26 17:36 -45.22147 -72.76520 35073 ft 388 kts 191°
2026-04-26 17:37 -45.24832 -72.76994 35206 ft 389 kts 192°
2026-04-26 17:37 -45.27532 -72.77470 35331 ft 392 kts 192°
2026-04-26 17:37 -45.30219 -72.77947 35234 ft 393 kts 192°
2026-04-26 17:38 -45.38280 -72.79369 35092 ft 387 kts 192°
2026-04-26 17:38 -45.43613 -72.80318 35003 ft 385 kts 192°
2026-04-26 17:39 -45.48934 -72.81262 34905 ft 385 kts 192°
2026-04-26 17:39 -45.54253 -72.82211 34815 ft 385 kts 192°
2026-04-26 17:40 -45.58673 -72.82998 34745 ft 385 kts 192°
2026-04-26 17:40 -45.64857 -72.84103 34635 ft 385 kts 192°
2026-04-26 17:41 -45.70219 -72.85066 34788 ft 389 kts 192°
2026-04-26 17:41 -45.72907 -72.85545 34948 ft 390 kts 192°
2026-04-26 17:41 -45.75605 -72.86030 35106 ft 391 kts 192°
2026-04-26 17:42 -45.78317 -72.86520 35277 ft 392 kts 192°
2026-04-26 17:42 -45.81043 -72.87011 35265 ft 397 kts 192°
2026-04-26 17:42 -45.86459 -72.87979 35160 ft 391 kts 192°
2026-04-26 17:43 -45.91851 -72.88960 35061 ft 390 kts 192°
2026-04-26 17:43 -45.97241 -72.89930 34973 ft 391 kts 192°
2026-04-26 17:44 -46.02640 -72.90910 34875 ft 391 kts 192°
2026-04-26 17:44 -46.08044 -72.91891 34783 ft 391 kts 192°
2026-04-26 17:45 -46.13443 -72.92873 34694 ft 391 kts 192°
2026-04-26 17:45 -46.18847 -72.93856 34603 ft 391 kts 193°
2026-04-26 17:46 -46.24216 -72.94838 34519 ft 392 kts 192°
2026-04-26 17:46 -46.29628 -72.95828 34420 ft 391 kts 193°
2026-04-26 17:47 -46.33244 -72.96492 34363 ft 392 kts 193°
2026-04-26 17:47 -46.40432 -72.97812 34224 ft 391 kts 193°
2026-04-26 17:48 -46.45844 -72.98808 34122 ft 392 kts 193°
2026-04-26 17:48 -46.51253 -72.99806 34019 ft 393 kts 193°
2026-04-26 17:49 -46.56657 -73.00803 33919 ft 393 kts 193°
2026-04-26 17:49 -46.62090 -73.01813 33814 ft 393 kts 192°
2026-04-26 17:50 -46.67511 -73.02815 33711 ft 393 kts 192°
2026-04-26 17:50 -46.72945 -73.03828 33611 ft 393 kts 193°
2026-04-26 17:51 -46.78375 -73.04838 33508 ft 393 kts 192°
2026-04-26 17:51 -46.83808 -73.05852 33406 ft 394 kts 193°
2026-04-26 17:52 -46.89249 -73.06874 33320 ft 393 kts 193°
2026-04-26 17:52 -46.94647 -73.07881 33221 ft 392 kts 193°
2026-04-26 17:53 -47.00079 -73.08905 33129 ft 393 kts 193°
2026-04-26 17:54 -47.08282 -73.10451 33610 ft 397 kts 193°
2026-04-26 17:54 -47.11031 -73.10974 33798 ft 399 kts 193°
2026-04-26 17:54 -47.13793 -73.11498 34027 ft 401 kts 193°
2026-04-26 17:54 -47.16565 -73.12022 34256 ft 402 kts 193°
2026-04-26 17:55 -47.19307 -73.12543 34411 ft 403 kts 193°
2026-04-26 17:55 -47.22091 -73.13073 34569 ft 405 kts 193°
2026-04-26 17:55 -47.24897 -73.13606 34762 ft 406 kts 193°
2026-04-26 17:55 -47.27708 -73.14140 34947 ft 407 kts 193°
2026-04-26 17:56 -47.30521 -73.14677 35118 ft 409 kts 193°
2026-04-26 17:57 -47.41846 -73.16840 35050 ft 407 kts 193°
2026-04-26 17:57 -47.47450 -73.17916 34957 ft 405 kts 193°
2026-04-26 17:58 -47.58643 -73.20070 34786 ft 406 kts 193°
2026-04-26 17:59 -47.66116 -73.21515 34670 ft 407 kts 193°
2026-04-26 17:59 -47.71748 -73.22603 34580 ft 408 kts 193°
2026-04-26 18:00 -47.77373 -73.23694 34475 ft 411 kts 193°
2026-04-26 18:00 -47.81142 -73.24432 34684 ft 412 kts 192°
2026-04-26 18:00 -47.83061 -73.24801 34795 ft 413 kts 192°
2026-04-26 18:01 -47.85921 -73.25355 34918 ft 415 kts 192°
2026-04-26 18:01 -47.88786 -73.25915 35088 ft 415 kts 192°
2026-04-26 18:01 -47.91656 -73.26480 35244 ft 417 kts 193°
2026-04-26 18:01 -47.94550 -73.27047 35179 ft 422 kts 192°
2026-04-26 18:02 -47.99342 -73.27973 35093 ft 415 kts 193°
2026-04-26 18:02 -48.05988 -73.29288 34986 ft 414 kts 193°
2026-04-26 18:03 -48.11709 -73.30406 34891 ft 415 kts 193°
2026-04-26 18:03 -48.17434 -73.31538 34797 ft 415 kts 193°
2026-04-26 18:04 -48.23156 -73.32666 34707 ft 414 kts 193°
2026-04-26 18:05 -48.31726 -73.34362 34573 ft 415 kts 193°
2026-04-26 18:05 -48.37463 -73.35505 34704 ft 419 kts 193°
2026-04-26 18:05 -48.40363 -73.36077 34866 ft 420 kts 193°
2026-04-26 18:06 -48.43262 -73.36655 34998 ft 421 kts 193°
2026-04-26 18:06 -48.46187 -73.37240 35127 ft 423 kts 193°
2026-04-26 18:06 -48.49113 -73.37825 35188 ft 427 kts 193°
2026-04-26 18:07 -48.54989 -73.38992 35067 ft 422 kts 193°
2026-04-26 18:07 -48.60804 -73.40163 34964 ft 421 kts 193°
2026-04-26 18:08 -48.66608 -73.41326 34867 ft 420 kts 193°
2026-04-26 18:08 -48.72370 -73.42486 34775 ft 421 kts 193°
2026-04-26 18:09 -48.78185 -73.43661 34687 ft 421 kts 193°
2026-04-26 18:09 -48.84000 -73.44833 34591 ft 421 kts 193°
2026-04-26 18:10 -48.89792 -73.46008 34503 ft 419 kts 193°
2026-04-26 18:10 -48.95587 -73.47187 34415 ft 421 kts 193°
2026-04-26 18:11 -49.01368 -73.48362 34332 ft 422 kts 193°
2026-04-26 18:11 -49.07194 -73.49552 34241 ft 422 kts 193°
2026-04-26 18:12 -49.13036 -73.50748 34144 ft 426 kts 193°
2026-04-26 18:12 -49.15981 -73.51354 34385 ft 426 kts 193°
2026-04-26 18:12 -49.18919 -73.51954 34588 ft 426 kts 193°
2026-04-26 18:12 -49.21867 -73.52558 34741 ft 428 kts 193°
2026-04-26 18:13 -49.24821 -73.53168 34919 ft 429 kts 193°
2026-04-26 18:13 -49.27743 -73.53770 35099 ft 430 kts 193°
2026-04-26 18:13 -49.30723 -73.54384 35105 ft 435 kts 193°
2026-04-26 18:14 -49.36686 -73.55611 34994 ft 429 kts 193°
2026-04-26 18:14 -49.42591 -73.56838 34894 ft 427 kts 193°
2026-04-26 18:15 -49.48480 -73.58059 34810 ft 427 kts 193°
2026-04-26 18:15 -49.54382 -73.59289 34714 ft 428 kts 193°
2026-04-26 18:16 -49.60274 -73.60517 34622 ft 430 kts 193°
2026-04-26 18:16 -49.69157 -73.62376 34490 ft 429 kts 193°
2026-04-26 18:17 -49.75072 -73.63616 34372 ft 431 kts 193°
2026-04-26 18:17 -49.78063 -73.64249 34502 ft 433 kts 193°
2026-04-26 18:17 -49.81046 -73.64872 34772 ft 433 kts 193°
2026-04-26 18:18 -49.84036 -73.65502 34931 ft 434 kts 193°
2026-04-26 18:18 -49.87031 -73.66138 35093 ft 436 kts 193°
2026-04-26 18:18 -49.93069 -73.67410 34966 ft 434 kts 193°
2026-04-26 18:19 -49.99006 -73.68672 34865 ft 433 kts 193°
2026-04-26 18:19 -50.04966 -73.69936 34761 ft 432 kts 193°
2026-04-26 18:20 -50.10934 -73.71209 34668 ft 433 kts 193°
2026-04-26 18:20 -50.15927 -73.72278 34660 ft 437 kts 193°
2026-04-26 18:21 -50.19962 -73.73137 34993 ft 437 kts 193°
2026-04-26 18:21 -50.22986 -73.73785 35005 ft 442 kts 193°
2026-04-26 18:21 -50.29048 -73.75084 34897 ft 436 kts 193°
2026-04-26 18:22 -50.35092 -73.75887 34818 ft 444 kts 179°
2026-04-26 18:22 -50.38146 -73.74859 34802 ft 455 kts 165°
2026-04-26 18:22 -50.40993 -73.72717 34775 ft 464 kts 155°
2026-04-26 18:23 -50.46534 -73.67486 34686 ft 465 kts 154°
2026-04-26 18:23 -50.52102 -73.62308 34586 ft 464 kts 155°
2026-04-26 18:24 -50.57644 -73.57095 34493 ft 464 kts 154°
2026-04-26 18:24 -50.63185 -73.51891 34397 ft 464 kts 154°
2026-04-26 18:25 -50.68743 -73.46649 34318 ft 468 kts 154°
2026-04-26 18:25 -50.71537 -73.44004 34581 ft 466 kts 154°
2026-04-26 18:25 -50.74319 -73.41372 34782 ft 467 kts 154°
2026-04-26 18:26 -50.77115 -73.38728 34940 ft 469 kts 154°
2026-04-26 18:26 -50.79926 -73.36061 34938 ft 474 kts 154°
2026-04-26 18:26 -50.85485 -73.30763 34824 ft 466 kts 154°
2026-04-26 18:27 -50.91043 -73.25472 34728 ft 465 kts 154°
2026-04-26 18:27 -50.96577 -73.20173 34639 ft 464 kts 154°
2026-04-26 18:28 -51.02111 -73.14866 34581 ft 465 kts 154°
2026-04-26 18:28 -51.07634 -73.09556 34544 ft 463 kts 154°
2026-04-26 18:29 -51.10367 -73.06918 34386 ft 453 kts 154°
2026-04-26 18:29 -51.13022 -73.04351 34000 ft 455 kts 154°
2026-04-26 18:29 -51.15751 -73.01724 33478 ft 457 kts 154°
2026-04-26 18:29 -51.18471 -72.99093 32946 ft 459 kts 154°
2026-04-26 18:30 -51.21210 -72.96435 32453 ft 462 kts 153°
2026-04-26 18:30 -51.23974 -72.93740 31973 ft 465 kts 153°
2026-04-26 18:30 -51.26734 -72.91039 31505 ft 465 kts 153°
2026-04-26 18:30 -51.29487 -72.88348 31040 ft 463 kts 153°
2026-04-26 18:31 -51.32234 -72.85664 30584 ft 461 kts 153°
2026-04-26 18:31 -51.34928 -72.83024 30146 ft 461 kts 153°
2026-04-26 18:31 -51.37689 -72.80316 29652 ft 468 kts 153°
2026-04-26 18:31 -51.40460 -72.77589 29145 ft 466 kts 153°
2026-04-26 18:32 -51.43215 -72.74873 28793 ft 464 kts 153°
2026-04-26 18:32 -51.45957 -72.72173 28598 ft 464 kts 153°
2026-04-26 18:32 -51.48710 -72.69460 28407 ft 462 kts 153°
2026-04-26 18:32 -51.51436 -72.66761 28228 ft 459 kts 153°
2026-04-26 18:33 -51.54145 -72.64078 28085 ft 458 kts 153°
2026-04-26 18:33 -51.56860 -72.61388 27954 ft 458 kts 153°
2026-04-26 18:33 -51.59567 -72.58702 27821 ft 457 kts 153°
2026-04-26 18:33 -51.62269 -72.56017 27688 ft 457 kts 153°
2026-04-26 18:34 -51.64970 -72.53325 27561 ft 456 kts 153°
2026-04-26 18:34 -51.67659 -72.50644 27432 ft 455 kts 153°
2026-04-26 18:34 -51.70347 -72.47961 27298 ft 454 kts 153°
2026-04-26 18:34 -51.73026 -72.45276 27170 ft 453 kts 152°
2026-04-26 18:35 -51.75589 -72.42290 27042 ft 454 kts 147°
2026-04-26 18:35 -51.78068 -72.39250 26910 ft 453 kts 147°
2026-04-26 18:35 -51.80588 -72.36194 26720 ft 453 kts 147°
2026-04-26 18:35 -51.83107 -72.33151 26465 ft 450 kts 147°
2026-04-26 18:36 -51.85604 -72.30104 26216 ft 449 kts 147°
2026-04-26 18:36 -51.88091 -72.27058 25968 ft 447 kts 147°
2026-04-26 18:36 -51.90570 -72.24031 25726 ft 446 kts 147°
2026-04-26 18:36 -51.93047 -72.21005 25412 ft 445 kts 147°
2026-04-26 18:37 -51.95508 -72.17988 25012 ft 442 kts 147°
2026-04-26 18:37 -51.97950 -72.14987 24588 ft 439 kts 147°
2026-04-26 18:37 -52.00383 -72.12029 24168 ft 435 kts 147°
2026-04-26 18:37 -52.02795 -72.09087 23761 ft 433 kts 146°
2026-04-26 18:38 -52.05182 -72.06114 23315 ft 431 kts 146°
2026-04-26 18:38 -52.07548 -72.03155 22833 ft 429 kts 146°
2026-04-26 18:38 -52.09829 -72.00034 22360 ft 426 kts 142°
2026-04-26 18:38 -52.12041 -71.96921 21889 ft 416 kts 143°
2026-04-26 18:39 -52.14231 -71.93887 21446 ft 411 kts 143°
2026-04-26 18:39 -52.16390 -71.90853 20990 ft 409 kts 142°
2026-04-26 18:39 -52.18529 -71.87805 20550 ft 407 kts 142°
2026-04-26 18:39 -52.20658 -71.84783 20120 ft 404 kts 143°
2026-04-26 18:40 -52.22780 -71.81792 19687 ft 402 kts 143°
2026-04-26 18:40 -52.24885 -71.78808 19269 ft 400 kts 143°
2026-04-26 18:40 -52.26952 -71.75866 18862 ft 399 kts 143°
2026-04-26 18:40 -52.29072 -71.72851 18451 ft 398 kts 143°
2026-04-26 18:41 -52.31149 -71.69892 18012 ft 396 kts 143°
2026-04-26 18:41 -52.33220 -71.66942 17552 ft 393 kts 142°
2026-04-26 18:41 -52.35245 -71.64049 17096 ft 390 kts 142°
2026-04-26 18:41 -52.37279 -71.61139 16645 ft 387 kts 142°
2026-04-26 18:42 -52.39298 -71.58250 16208 ft 384 kts 142°
2026-04-26 18:42 -52.41300 -71.55381 15781 ft 381 kts 142°
2026-04-26 18:42 -52.43286 -71.52532 15335 ft 378 kts 142°
2026-04-26 18:42 -52.45255 -71.49703 14921 ft 375 kts 141°
2026-04-26 18:43 -52.47208 -71.46892 14506 ft 372 kts 141°
2026-04-26 18:43 -52.49145 -71.44100 14097 ft 369 kts 141°
2026-04-26 18:43 -52.51072 -71.41323 13680 ft 367 kts 141°
2026-04-26 18:43 -52.52984 -71.38562 13207 ft 364 kts 141°
2026-04-26 18:44 -52.54876 -71.35828 12771 ft 362 kts 141°
2026-04-26 18:44 -52.56760 -71.33100 12333 ft 359 kts 141°
2026-04-26 18:44 -52.58617 -71.30406 11901 ft 351 kts 141°
2026-04-26 18:44 -52.60429 -71.27779 11463 ft 343 kts 141°
2026-04-26 18:45 -52.62199 -71.25208 11043 ft 336 kts 141°
2026-04-26 18:45 -52.63939 -71.22676 10628 ft 330 kts 141°
2026-04-26 18:45 -52.65621 -71.20227 10229 ft 324 kts 141°
2026-04-26 18:45 -52.67295 -71.17788 9824 ft 319 kts 141°
2026-04-26 18:46 -52.68943 -71.15385 9389 ft 314 kts 141°
2026-04-26 18:46 -52.70562 -71.13019 8956 ft 310 kts 141°
2026-04-26 18:46 -52.72167 -71.10671 8527 ft 307 kts 141°
2026-04-26 18:46 -52.73760 -71.08341 8109 ft 305 kts 141°
2026-04-26 18:47 -52.75334 -71.06033 7694 ft 301 kts 141°
2026-04-26 18:47 -52.76885 -71.03758 7328 ft 295 kts 141°
2026-04-26 18:47 -52.78404 -71.01525 7001 ft 289 kts 141°
2026-04-26 18:47 -52.79892 -70.99340 6678 ft 283 kts 141°
2026-04-26 18:48 -52.80880 -70.97886 6466 ft 280 kts 141°
2026-04-26 18:48 -52.82318 -70.95770 6155 ft 273 kts 141°
2026-04-26 18:48 -52.83699 -70.93735 5871 ft 266 kts 141°
2026-04-26 18:48 -52.84925 -70.91488 5594 ft 260 kts 126°
2026-04-26 18:49 -52.85926 -70.89038 5354 ft 253 kts 125°
2026-04-26 18:49 -52.86914 -70.86664 5132 ft 247 kts 127°
2026-04-26 18:49 -52.87901 -70.84365 4927 ft 243 kts 127°
2026-04-26 18:49 -52.88863 -70.82096 4712 ft 238 kts 127°
2026-04-26 18:50 -52.89797 -70.79868 4522 ft 230 kts 127°
2026-04-26 18:50 -52.90687 -70.77755 4368 ft 218 kts 127°
2026-04-26 18:50 -52.91552 -70.75704 4203 ft 218 kts 127°
2026-04-26 18:50 -52.92420 -70.73641 4052 ft 218 kts 127°
2026-04-26 18:51 -52.93279 -70.71594 3978 ft 214 kts 127°
2026-04-26 18:51 -52.94132 -70.69561 3979 ft 216 kts 127°
2026-04-26 18:51 -52.94992 -70.67515 3981 ft 217 kts 127°
2026-04-26 18:51 -52.95971 -70.65625 3960 ft 214 kts 149°
2026-04-26 18:52 -52.97309 -70.64951 3975 ft 199 kts 187°
2026-04-26 18:52 -52.98580 -70.65486 3973 ft 183 kts 218°
2026-04-26 18:52 -52.99466 -70.66875 3980 ft 171 kts 244°
2026-04-26 18:52 -52.99852 -70.68658 3841 ft 160 kts 265°
2026-04-26 18:53 -52.99934 -70.70523 3219 ft 164 kts 270°
2026-04-26 18:53 -52.99977 -70.72436 2607 ft 166 kts 271°
2026-04-26 18:53 -52.99999 -70.74309 2102 ft 159 kts 272°
2026-04-26 18:53 -53.00018 -70.76120 1616 ft 155 kts 274°
2026-04-26 18:54 -53.00014 -70.77811 1054 ft 156 kts 275°
2026-04-26 18:54 -53.00029 -70.79611 596 ft 153 kts 274°
2026-04-26 18:54 -53.00037 -70.81317 367 ft 143 kts 271°
2026-04-26 18:54 -53.00056 -70.82909 206 ft 134 kts 271°
2026-04-26 18:55 -53.00077 -70.84362 130 ft 113 kts 269°
2026-04-26 18:55 -53.00089 -70.85414 132 ft 75 kts 269°
2026-04-26 18:55 -53.00097 -70.86081 141 ft 27 kts 268°
2026-04-26 18:55 -53.00111 -70.86287 144 ft 11 kts 236°
2026-04-26 18:56 -53.00167 -70.86276 142 ft 9 kts 140°
2026-04-26 18:56 -53.00219 -70.86200 141 ft 12 kts 138°
2026-04-26 18:56 -53.00270 -70.86067 139 ft 16 kts 99°
2026-04-26 18:56 -53.00267 -70.85849 137 ft 22 kts 89°
2026-04-26 18:57 -53.00263 -70.85573 134 ft 26 kts 88°
2026-04-26 18:57 -53.00261 -70.85368 132 ft 28 kts 89°
2026-04-26 18:57 -53.00255 -70.84927 130 ft 29 kts 89°
2026-04-26 18:57 -53.00251 -70.84596 125 ft 28 kts 89°
2026-04-26 18:58 -53.00273 -70.84393 122 ft 15 kts 142°
2026-04-26 18:58 -53.00373 -70.84370 126 ft 14 kts 176°
2026-04-26 18:58 -53.00441 -70.84365 124 ft 6 kts 178°
2026-04-26 18:58 -53.00452 -70.84365 126 ft 0 kts 178°